Home > Weather > Saint John's > Past weeks

Flag for Antigua and Barbuda Weather for the Past 2 Weeks in Saint John's, Antigua and Barbuda

Now
82 °F

Partly sunny.


Feels Like: 86 °F
Forecast: 75 / 80 °F
Wind: 13 mph from East

Location: Vc Bird International Antigua Airport

Current Time: Feb 12, 2016 at 1:29:09 PM

Latest Report: Feb 12, 2016 at 1:00 PM


Visibility: N/A

Pressure: 30.09 "Hg

Humidity: 66%

Dew point: 70 °F

Location of Saint John'sLocation

Historic Weather in Saint John's — Graph

°F

Saint John's Temperature Yesterday

Maximum temperature yesterday: 81 °F (at 9:00 AM)
Minimum temperature yesterday: 75 °F (at 3:00 AM)
Average temperature yesterday: 78 °F

High & Low Weather Summary for the Past Weeks

 TemperatureHumidityPressure
High84 °F (Feb 6, 11:00 AM)94% (Jan 29, 4:25 PM)30.12 "Hg (Jan 29, 4:25 PM)
Low68 °F (Feb 5, 2:00 AM)54% (Feb 4, 1:00 PM)29.86 "Hg (Feb 4, 3:00 AM)
Average78 °F75%30.03 "Hg
* Reported Jan 28 12:00 Noon — Feb 12 12:00 Noon, Saint John's, Weather by CustomWeather, © 2016

Note: Actual official high and low records may vary slightly from our data, if they occured in-between our weather recording intervals... More about our weather records

Advertising

Saint John's Weather History for the Previous 24 Hours

 ConditionsComfort  
Time TempWeatherWind HumidityBarometerVisibility
12:00 PM
Fri, Feb 12
82 °FPartly sunny.13 mph62%30.09 "HgN/A
11:00 AM82 °FPassing clouds.13 mph66%30.12 "HgN/A
10:00 AM82 °FPassing clouds.12 mph66%30.12 "HgN/A
9:00 AM81 °FPassing clouds.13 mph70%30.12 "HgN/A
8:00 AM79 °FPassing clouds.12 mph74%30.09 "HgN/A
7:00 AM77 °FPassing clouds.10 mph79%30.07 "HgN/A
6:00 AM77 °FPassing clouds.9 mph79%30.07 "HgN/A
5:00 AM77 °FPassing clouds.8 mph79%30.04 "HgN/A
4:00 AM77 °FPassing clouds.9 mph79%30.04 "HgN/A
3:00 AM77 °FPassing clouds.10 mph74%30.04 "HgN/A
2:00 AM77 °FPassing clouds.8 mph79%30.09 "HgN/A
1:00 AM77 °FPassing clouds.8 mph79%30.09 "HgN/A
12:00 AM77 °FPassing clouds.8 mph79%30.09 "HgN/A
11:00 PM
Thu, Feb 11
77 °FPassing clouds.8 mph74%30.09 "HgN/A
10:00 PM77 °FPassing clouds.9 mph74%30.09 "HgN/A
9:00 PM77 °FPassing clouds.9 mph79%30.09 "HgN/A
8:00 PM77 °FPassing clouds.8 mph79%30.07 "HgN/A
7:00 PM77 °FPassing clouds.8 mph79%30.07 "HgN/A
5:00 PM79 °FPassing clouds.9 mph74%30.04 "HgN/A
4:00 PM81 °FPassing clouds.10 mph70%30.04 "HgN/A
3:00 PM81 °FScattered clouds.13 mph70%30.01 "HgN/A
2:00 PM81 °FPassing clouds.13 mph74%30.04 "HgN/A
1:00 PM81 °FPassing clouds.14 mph70%30.04 "HgN/A
Weather by CustomWeather, © 2016

See weather overviewHow to use our weather pages